Powrót do katalogu

HULIANWANG DIGUI-86

AktywnyŁącznośćPO
NORAD 65821·PAYLOAD·🇨🇳 China

Wystrzelony Sep 27, 2025 z Taiyuan Satellite Launch Center

Loading…

Następne Przeloty (najbliższe 24 godziny)

TLE

ŚwieżeSource: Space-Track

Epoka: Sep 14, 2026, 06:44 UTC

1 65821U 25220E   26257.28115947  .00000062  00000-0  11003-3 0  9998
2 65821  86.5030  13.7513 0001407 107.2783 252.8505 13.24412691 46714

Śledź HULIANWANG DIGUI-86 w czasie rzeczywistym z AllMySat

Download on the App Store